Previsão horária em Alifanov

Hoje, 19 Junho, Sábado

Tempo Temperatura Precipitação Vento Pressão Humidade
00:00 +21°C° 0 mm 5 m/s 760 mmHg 68%
01:00 +20°C° 0 mm 6 m/s 760 mmHg 69%
02:00 +20°C° 0 mm 6 m/s 760 mmHg 70%
03:00 +18°C° 0 mm 7 m/s 760 mmHg 72%
04:00 +18°C° 0.1 mm 7 m/s 760 mmHg 72%
05:00 +18°C° 0.1 mm 7 m/s 760 mmHg 73%
06:00 +18°C° 0.1 mm 7 m/s 761 mmHg 73%
07:00 +20°C° 0.1 mm 7 m/s 761 mmHg 69%
08:00 +22°C° 0.1 mm 8 m/s 761 mmHg 65%
09:00 +23°C° 0 mm 8 m/s 761 mmHg 61%
10:00 +24°C° 0 mm 8 m/s 761 mmHg 57%
11:00 +27°C° 0 mm 8 m/s 761 mmHg 53%
12:00 +28°C° 0 mm 8 m/s 761 mmHg 49%
13:00 +28°C° 0 mm 8 m/s 761 mmHg 49%
14:00 +29°C° 0 mm 8 m/s 760 mmHg 49%
15:00 +29°C° 0 mm 8 m/s 760 mmHg 48%
16:00 +29°C° 0 mm 7 m/s 760 mmHg 50%
17:00 +28°C° 0 mm 7 m/s 760 mmHg 51%
18:00 +27°C° 0 mm 7 m/s 760 mmHg 53%
19:00 +26°C° 0 mm 6 m/s 760 mmHg 54%
20:00 +23°C° 0 mm 6 m/s 760 mmHg 55%
21:00 +21°C° 0 mm 6 m/s 760 mmHg 57%
22:00 +21°C° 0 mm 6 m/s 760 mmHg 56%
23:00 +20°C° 0 mm 6 m/s 760 mmHg 56%

Amanhã, 20 Junho, Domingo

Tempo Temperatura Precipitação Vento Pressão Humidade
00:00 +20°C° 0 mm 5 m/s 760 mmHg 56%
01:00 +19°C° 0 mm 5 m/s 760 mmHg 57%
02:00 +19°C° 0 mm 5 m/s 760 mmHg 57%
03:00 +17°C° 0 mm 5 m/s 760 mmHg 58%
04:00 +19°C° 0 mm 5 m/s 759 mmHg 60%
05:00 +19°C° 0 mm 6 m/s 759 mmHg 61%
06:00 +19°C° 0 mm 6 m/s 759 mmHg 63%
07:00 +20°C° 0 mm 6 m/s 759 mmHg 60%
08:00 +22°C° 0 mm 6 m/s 759 mmHg 57%
09:00 +24°C° 0 mm 7 m/s 759 mmHg 54%
10:00 +27°C° 0 mm 7 m/s 759 mmHg 50%
11:00 +28°C° 0 mm 7 m/s 759 mmHg 47%
12:00 +31°C° 0 mm 8 m/s 759 mmHg 43%
13:00 +32°C° 0 mm 7 m/s 758 mmHg 42%
14:00 +33°C° 0 mm 7 m/s 758 mmHg 41%
15:00 +34°C° 0 mm 7 m/s 757 mmHg 40%
16:00 +33°C° 0 mm 6 m/s 757 mmHg 43%
17:00 +32°C° 0 mm 5 m/s 757 mmHg 47%
18:00 +30°C° 0 mm 5 m/s 757 mmHg 51%
19:00 +29°C° 0 mm 5 m/s 757 mmHg 53%
20:00 +27°C° 0 mm 5 m/s 757 mmHg 55%
21:00 +26°C° 0 mm 5 m/s 757 mmHg 57%
22:00 +25°C° 0 mm 4 m/s 757 mmHg 56%
23:00 +23°C° 0 mm 4 m/s 757 mmHg 55%

Depois de amanhã, 21 Junho, Segunda-feira

Tempo Temperatura Precipitação Vento Pressão Humidade
00:00 +23°C° 0 mm 4 m/s 757 mmHg 54%
01:00 +22°C° 0 mm 4 m/s 757 mmHg 54%
02:00 +21°C° 0 mm 4 m/s 757 mmHg 54%
03:00 +21°C° 0 mm 4 m/s 757 mmHg 53%
04:00 +21°C° 0 mm 4 m/s 757 mmHg 55%
05:00 +21°C° 0 mm 4 m/s 758 mmHg 56%
06:00 +20°C° 0 mm 4 m/s 758 mmHg 58%
07:00 +22°C° 0 mm 5 m/s 758 mmHg 54%
08:00 +25°C° 0 mm 5 m/s 758 mmHg 51%
09:00 +27°C° 0 mm 6 m/s 758 mmHg 48%
10:00 +29°C° 0 mm 6 m/s 758 mmHg 44%
11:00 +32°C° 0 mm 7 m/s 757 mmHg 40%
12:00 +33°C° 0 mm 7 m/s 757 mmHg 37%
13:00 +34°C° 0 mm 7 m/s 757 mmHg 35%
14:00 +35°C° 0 mm 7 m/s 757 mmHg 34%
15:00 +36°C° 0 mm 7 m/s 756 mmHg 33%
16:00 +35°C° 0 mm 6 m/s 756 mmHg 36%
17:00 +34°C° 0 mm 5 m/s 756 mmHg 40%
18:00 +33°C° 0 mm 5 m/s 756 mmHg 43%
19:00 +30°C° 0 mm 4 m/s 756 mmHg 46%
20:00 +28°C° 0 mm 4 m/s 757 mmHg 49%
21:00 +26°C° 0 mm 4 m/s 757 mmHg 52%
22:00 +25°C° 0 mm 4 m/s 757 mmHg 51%
23:00 +23°C° 0 mm 4 m/s 757 mmHg 49%

22 Junho, Terça-feira

Tempo Temperatura Precipitação Vento Pressão Humidade
00:00 +23°C° 0 mm 4 m/s 757 mmHg 48%
01:00 +22°C° 0 mm 4 m/s 757 mmHg 48%
02:00 +22°C° 0 mm 4 m/s 757 mmHg 48%
03:00 +21°C° 0 mm 4 m/s 757 mmHg 48%
04:00 +21°C° 0 mm 4 m/s 758 mmHg 51%
05:00 +21°C° 0 mm 4 m/s 758 mmHg 55%
06:00 +21°C° 0 mm 3 m/s 758 mmHg 59%
07:00 +25°C° 0 mm 4 m/s 758 mmHg 54%
08:00 +27°C° 0 mm 5 m/s 758 mmHg 48%
09:00 +30°C° 0 mm 6 m/s 758 mmHg 43%
10:00 +32°C° 0 mm 7 m/s 758 mmHg 40%
11:00 +34°C° 0 mm 7 m/s 758 mmHg 36%
12:00 +35°C° 0 mm 8 m/s 757 mmHg 32%
13:00 +36°C° 0 mm 7 m/s 757 mmHg 32%
14:00 +36°C° 0 mm 6 m/s 757 mmHg 32%
15:00 +38°C° 0 mm 6 m/s 756 mmHg 31%
16:00 +36°C° 0 mm 5 m/s 756 mmHg 35%
17:00 +35°C° 0 mm 5 m/s 756 mmHg 39%
18:00 +34°C° 0 mm 4 m/s 756 mmHg 43%
19:00 +32°C° 0 mm 4 m/s 756 mmHg 45%
20:00 +29°C° 0 mm 5 m/s 756 mmHg 47%
21:00 +28°C° 0 mm 5 m/s 756 mmHg 50%
22:00 +27°C° 0 mm 4 m/s 756 mmHg 48%
23:00 +26°C° 0 mm 4 m/s 756 mmHg 47%

23 Junho, Quarta-feira

Tempo Temperatura Precipitação Vento Pressão Humidade
00:00 +25°C° 0 mm 4 m/s 756 mmHg 46%
01:00 +25°C° 0 mm 4 m/s 757 mmHg 46%
02:00 +23°C° 0 mm 4 m/s 757 mmHg 45%
03:00 +24°C° 0 mm 3 m/s 757 mmHg 44%
04:00 +23°C° 0 mm 4 m/s 757 mmHg 48%
05:00 +23°C° 0 mm 4 m/s 757 mmHg 52%
06:00 +23°C° 0 mm 4 m/s 757 mmHg 55%
07:00 +26°C° 0 mm 5 m/s 757 mmHg 51%
08:00 +29°C° 0 mm 5 m/s 757 mmHg 48%
09:00 +32°C° 0 mm 6 m/s 757 mmHg 44%
10:00 +34°C° 0 mm 6 m/s 757 mmHg 39%
11:00 +35°C° 0 mm 7 m/s 757 mmHg 35%
12:00 +38°C° 0 mm 7 m/s 757 mmHg 31%
13:00 +38°C° 0 mm 7 m/s 757 mmHg 30%
14:00 +39°C° 0 mm 6 m/s 757 mmHg 30%
15:00 +39°C° 0 mm 5 m/s 757 mmHg 29%
16:00 +37°C° 0 mm 5 m/s 757 mmHg 34%
17:00 +36°C° 0 mm 4 m/s 756 mmHg 39%
18:00 +35°C° 0 mm 3 m/s 756 mmHg 43%
19:00 +33°C° 0 mm 3 m/s 757 mmHg 45%
20:00 +31°C° 0 mm 3 m/s 757 mmHg 46%
21:00 +29°C° 0 mm 3 m/s 757 mmHg 48%
22:00 +28°C° 0 mm 3 m/s 757 mmHg 47%
23:00 +27°C° 0 mm 3 m/s 757 mmHg 46%

24 Junho, Quinta-feira

Tempo Temperatura Precipitação Vento Pressão Humidade
00:00 +26°C° 0 mm 3 m/s 758 mmHg 46%
01:00 +26°C° 0 mm 3 m/s 758 mmHg 45%
02:00 +25°C° 0 mm 3 m/s 758 mmHg 44%
03:00 +24°C° 0 mm 3 m/s 758 mmHg 43%
04:00 +24°C° 0 mm 3 m/s 758 mmHg 46%
05:00 +24°C° 0 mm 3 m/s 758 mmHg 49%
06:00 +24°C° 0 mm 3 m/s 758 mmHg 52%
07:00 +25°C° 0 mm 3 m/s 758 mmHg 50%
08:00 +27°C° 0 mm 3 m/s 758 mmHg 48%
09:00 +28°C° 0 mm 3 m/s 758 mmHg 46%
10:00 +30°C° 0 mm 3 m/s 758 mmHg 41%
11:00 +33°C° 0 mm 4 m/s 758 mmHg 36%
12:00 +34°C° 0 mm 5 m/s 758 mmHg 31%
13:00 +35°C° 0 mm 5 m/s 758 mmHg 29%
14:00 +36°C° 0 mm 5 m/s 758 mmHg 27%
15:00 +37°C° 0 mm 5 m/s 757 mmHg 25%
16:00 +36°C° 0 mm 4 m/s 757 mmHg 29%
17:00 +36°C° 0 mm 3 m/s 757 mmHg 33%
18:00 +35°C° 0 mm 3 m/s 757 mmHg 37%
19:00 +33°C° 0 mm 3 m/s 757 mmHg 39%
20:00 +30°C° 0 mm 4 m/s 756 mmHg 40%
21:00 +28°C° 0 mm 4 m/s 756 mmHg 42%
22:00 +28°C° 0 mm 4 m/s 756 mmHg 41%
23:00 +27°C° 0 mm 4 m/s 756 mmHg 41%
Mostrar mais